Showing default

EXPLORER 40 (INJUN-5), 3338

Orbit data source: Space-Track

EXPLORER 40 (INJUN-5), 3338 is a payload satellite owned by NASA LaRC (US) in LEO that was launched on Thu, 08 Aug 1968 UTC via an SCOUT B launch vehicle from the Air Force Western Test Range (AFWTR). Payload-class satellites include a variety of spacecraft equipped with specific instruments for various scientific and technological missions. These include communications satellites like Starlink; space stations such as the ISS; scientific satellites like the Hubble; Earth observation satellites from companies like Planet Labs, Umbra, and HawkEye 360; GPS; miniature CubeSats for education and research; and military/defense satellites.

Loading next visibility...
Identifier
3338, 1968-066B
Orbit
LEO
Last TLE update
13 hours ago
Origin
Manufacturer
Iowa
Mission
Civil Science
Bus & Motor
INJUN E, Unknown motor
Mass
70 kg wet, 70 kg dry
Launch date (UTC)
1968-08-08 (57 years ago)
Launch vehicle
SCOUT B
Launch site
Air Force Western Test Range (AFWTR)
Object type
Payload
Rocket body
Debris
Shape & HBR
Hex Cyl, 0.76 m
Radar Cross Section
0.609 m², Large (>1 m²)

Expand to show TLE details & history

TLE from 13 hours ago
0 EXPLORER 40 (INJUN-5)
1  3338U 68066B   25182.56196773  .00000056  00000-0  61065-4 0  9998
2  3338  80.6637 355.0445 1129760 298.5252  50.6606 12.23438488535441
Epoch: 2025-07-01T13:29Z
TLE epoch observation values (Epoch: 2025-07-01T13:29:14.011Z)
Latitude
-0.00004°
Longitude
-127.11953°
Altitude
1,077.992 km
Speed
7.54 km/s
True Right ascension
23h 40m 10s
True Declination
0° 00' 00"
Sunlit
Object was in daylight at epoch
Visualization orbit readout
Latitude
-74.74576°
Longitude
-164.38432°
Altitude
730.827 km
Speed
7.892 km/s
Apparent Right ascension
01h 15m 28s
Apparent Declination
-63° 08' 52"
Sunlit
Object is in full shadow
Visualization observer readout
Local Sidereal Time
14:33:48
Azimuth
159.789° S
Elevation
-64.011°
Doppler factor
1
Orbital elements
Apogee altitude
2,473.521 km
Perigee altitude
676.492 km
Semi-major axis
7,953.144 km
Eccentricity
0.11298
Inclination
80.6637°
RAAN
355.0445°
Arg. of periapsis
298.5252°
True anomaly
Unknown
Mean anomaly
50.6606°
Eccentric anomaly
Unknown
Mean motion
3.0601 °/min
Orbital period
117.64 mins
BSTAR
0.000061065
Loading maneuver chart data...
Loading SW <> Apogee altitude chart data...
Loading historical data...
Loading historical data...
Loading historical data...
Loading historical data...
Loading historical data...
Loading historical data...
Loading historical data...

EXPLORER 40 (INJUN-5) Visibility forecast

Observer location: undefined°, undefined°

Span
Click to sort rows by Start time (UTC) header in descending order
Start Az.
Max El. time (UTC)
Max El. Az.
Max El.
End time (UTC)
End Az.
16 mins2025-07-02 11:10:39.031Z143.38° SSE2025-07-02 11:17:39.031Z78.336° E31.946°2025-07-02 11:26:39.031Z22.966° NE
17 mins2025-07-02 13:09:39.031Z222.369° SW2025-07-02 13:15:39.031Z286.967° WNW38.062°2025-07-02 13:26:39.031Z3.17° NNE
7 mins2025-07-02 15:16:39.031Z305.549° NW2025-07-02 15:18:39.031Z316.881° NNW12.364°2025-07-02 15:23:39.031Z342.208° N
22 mins2025-07-02 21:30:39.031Z3.213° NNE2025-07-02 21:41:39.031Z61.067° ENE31.043°2025-07-02 21:52:39.031Z124.825° SE
24 mins2025-07-02 23:29:39.031Z346.291° N2025-07-02 23:42:39.031Z253.082° W43.883°2025-07-02 23:53:39.031Z184.629° SSW
15 mins2025-07-03 01:31:39.031Z321.15° NNW2025-07-03 01:38:39.031Z288.057° WNW19.1°2025-07-03 01:46:39.031Z248.443° W
|